Location: Eaton Estates
(41.3089°N, 82.0057°W)
Time: 07:35:13
(UTC+00:00)

Lacrosse 5 - Pass Details

Date: 17 June 2021
Orbit: 715 x 724 km, 57.0° (Epoch: 28 July)

Event Time Altitude Azimuth Distance (km) Brightness Sun altitude
Rises 02:02:04 0° 316° (NW) 3,125 7.6 -9.5°
Reaches altitude 10° 02:04:28 10° 319° (NW) 2,203 6.0 -9.8°
Maximum altitude 02:09:31 67° 42° (NE) 779 2.1 -10.5°
Enters shadow 02:13:46 15° 124° (SE) 1,905 3.4 -11.1°
